Lapse_Rate
6.5 6.6 6.6 6.7 6.7 6.8 6.8 6.9 7.0 7.1 7.1 7.1 7.1 7.0 7.2 7.3 7.4 7.6 7.5 7.4 7.7 7.8 8.0 8.0 8.0 8.1 8.3 8.2 8.2 8.1 7.5 7.2 6.9 6.6 6.5 6.4 5.9 5.9 5.8 5.4 5.4 5.6 5.8 5.7 5.6
6.1 6.3 6.3 6.4 6.6 6.6 6.7 6.8 6.9 7.0 7.0 7.1 7.1 7.0 7.0 7.1 7.3 7.5 7.3 7.5 7.7 7.8 8.0 8.3 8.3 8.2 8.3 8.3 8.5 8.2 7.7 7.2 7.0 7.0 6.8 6.5 6.2 6.2 6.0 5.8 5.7 5.8 5.6 5.6 5.6
6.0 6.0 6.0 6.1 6.2 6.4 6.5 6.6 6.8 6.9 7.0 7.0 7.1 7.1 7.0 7.0 7.2 7.4 7.3 7.6 7.6 7.8 8.0 8.4 8.2 8.0 8.4 8.5 8.5 8.4 7.8 7.4 7.3 7.2 7.1 6.8 6.6 6.4 6.1 6.0 5.7 5.6 5.6 5.5 5.4
5.9 6.0 5.9 5.9 6.0 6.1 6.1 6.3 6.4 6.7 6.9 6.9 7.0 7.1 7.1 7.1 7.1 7.5 7.5 7.6 7.5 7.7 7.8 8.0 8.2 8.3 8.3 9.0 8.9 8.5 8.0 7.6 7.6 7.5 7.4 7.0 6.9 6.9 6.7 6.5 6.0 5.6 5.2 5.3 5.3
5.8 5.9 5.9 5.8 5.8 5.9 5.9 6.0 6.1 6.2 6.5 6.8 6.9 7.0 7.1 7.2 7.2 7.5 7.8 7.8 7.8 7.9 7.8 8.2 8.2 8.6 8.7 9.1 9.2 8.7 8.2 8.2 7.8 8.0 7.7 7.2 7.1 7.0 6.9 6.6 6.4 5.9 5.5 5.3 5.3
5.7 5.7 5.8 5.9 5.8 5.7 5.8 5.9 5.9 5.9 6.2 6.5 6.6 6.9 7.1 7.3 7.3 7.4 7.8 7.9 7.8 7.9 8.0 8.2 8.2 8.7 8.7 9.2 9.0 8.9 8.6 8.3 8.0 8.3 8.1 7.4 7.4 7.0 7.0 6.8 6.7 6.3 5.9 5.7 5.6
5.8 5.7 5.8 5.8 5.8 5.7 5.7 5.8 5.7 5.8 5.9 6.2 6.4 6.8 7.1 7.3 7.1 7.4 7.6 7.9 8.0 7.9 8.0 8.1 8.1 8.5 8.9 8.8 9.0 8.9 8.7 8.3 8.2 8.3 8.3 7.9 7.9 7.5 7.2 7.1 6.8 6.7 6.3 6.2 6.2
5.9 5.9 5.7 5.7 5.7 5.7 5.7 5.7 5.7 5.7 5.8 6.0 6.2 6.6 7.3 6.6 7.0 7.3 7.4 7.9 8.0 8.0 8.1 8.2 8.0 8.5 8.8 8.7 8.7 8.8 8.5 8.0 8.1 8.2 8.4 8.3 8.6 8.0 7.4 7.2 7.1 6.9 6.7 6.6 6.5
6.0 6.0 5.9 5.7 5.7 5.6 5.6 5.7 5.6 5.7 5.7 5.8 6.0 6.4 6.8 6.8 7.1 7.1 7.2 7.7 7.9 7.9 8.0 8.0 8.0 8.4 8.6 8.7 8.5 8.6 8.3 8.2 8.0 8.2 8.3 8.5 8.7 8.8 8.2 7.4 7.1 7.0 7.0 6.9 6.7
6.0 6.1 6.0 5.8 5.8 5.6 5.5 5.7 5.6 5.6 5.7 5.8 6.0 6.2 6.7 7.0 7.1 7.1 7.3 7.3 7.6 7.6 7.8 7.9 7.9 8.3 8.4 8.6 8.8 8.4 8.4 8.3 8.3 8.4 8.3 8.6 8.7 8.8 8.6 8.3 7.8 7.3 7.2 7.0 6.9
5.6 6.0 6.1 5.9 5.8 5.7 5.5 5.6 5.6 5.6 5.7 5.9 6.1 6.3 6.7 7.0 7.3 7.2 7.0 7.1 7.2 7.5 7.7 7.8 7.8 8.2 8.4 8.6 8.7 8.7 8.4 8.3 8.4 8.2 8.2 8.3 8.5 8.6 8.8 8.8 8.6 8.1 7.7 7.2 7.0
5.5 5.7 5.9 6.0 5.8 5.6 5.5 5.6 5.6 5.5 5.8 5.9 6.0 6.4 6.3 6.8 7.1 7.2 6.9 6.7 6.9 7.2 7.5 7.9 7.7 8.2 8.3 8.4 8.6 8.6 8.5 8.5 8.5 8.2 8.3 8.3 8.1 8.3 8.5 8.6 8.6 8.4 8.2 7.9 7.7
5.4 5.6 5.6 5.7 5.8 5.7 5.5 5.5 5.6 5.6 5.5 6.1 6.0 6.5 6.1 6.4 7.0 7.2 6.9 7.0 7.2 7.3 7.5 7.8 8.3 8.4 8.1 8.2 8.5 8.5 8.6 8.7 8.5 8.4 8.3 8.3 8.0 8.4 8.5 8.4 8.4 8.5 8.1 8.2 7.7
5.0 5.3 5.5 5.5 5.6 5.7 5.6 5.5 5.4 5.4 5.3 6.2 6.5 6.8 6.3 6.3 6.7 6.9 7.0 7.1 7.1 7.2 7.7 7.9 8.3 8.5 8.4 8.2 8.4 8.6 8.7 8.4 8.7 8.5 8.3 8.3 9.1 8.8 8.6 8.6 8.6 8.6 8.5 8.1 8.0
4.7 5.0 5.2 5.4 5.4 5.4 5.8 5.6 5.2 5.3 5.5 6.4 6.2 6.5 6.5 6.4 6.7 6.7 7.0 7.1 7.3 7.6 7.3 7.2 7.6 7.8 8.0 8.5 8.5 8.7 8.7 9.0 8.8 7.8 7.9 8.0 8.4 9.1 8.8 8.6 8.6 8.7 8.7 8.4 8.1
4.0 4.5 5.1 5.2 5.3 5.2 5.5 5.7 5.2 5.2 4.9 6.1 5.9 6.1 6.4 6.4 6.7 7.0 6.7 6.7 7.0 7.2 7.4 7.5 7.7 7.6 8.0 8.8 8.6 8.8 9.0 9.0 8.5 7.6 8.2 7.9 8.3 9.2 9.3 9.5 9.2 8.8 8.7 8.6 8.3
3.4 4.1 4.6 5.1 5.1 5.1 5.3 5.2 5.0 4.8 5.7 6.2 6.1 6.1 6.3 6.6 6.4 6.6 6.7 6.3 6.3 6.4 6.6 7.2 7.5 7.8 8.3 8.2 8.2 8.5 8.8 8.5 8.5 8.5 8.8 8.1 7.8 8.9 9.3 9.5 9.2 9.2 9.1 8.9 8.6
3.0 3.6 4.4 5.1 4.8 5.0 5.1 4.9 4.7 5.0 6.1 6.2 6.1 6.2 6.2 6.5 6.3 6.7 6.7 6.6 6.5 6.9 7.2 7.0 7.0 7.3 7.5 7.8 8.3 8.9 8.8 8.8 8.4 8.5 8.7 7.7 7.8 8.8 9.2 9.2 9.3 9.4 9.2 8.8 8.5
2.8 3.2 4.4 4.6 4.7 4.8 4.9 4.1 4.4 5.1 6.1 6.3 6.2 6.1 6.0 6.3 6.5 6.4 6.5 6.3 7.2 7.2 7.5 7.2 7.6 8.0 8.0 8.7 8.8 8.6 8.3 8.7 8.6 7.9 8.2 7.8 8.6 8.8 9.1 9.2 9.3 9.5 9.2 9.2 8.9
3.0 3.5 4.2 4.5 4.7 4.7 4.4 3.8 4.3 5.2 6.1 6.6 6.4 6.4 6.2 6.1 6.4 6.4 6.7 6.5 6.7 7.2 7.5 7.7 7.9 8.3 8.5 8.5 8.6 8.8 9.0 8.6 8.3 7.9 8.3 7.7 8.0 8.9 9.2 9.2 9.3 9.5 9.4 9.2 8.9
3.3 3.7 4.2 4.5 4.6 4.4 3.6 3.3 4.2 5.1 5.8 6.3 6.9 6.5 6.4 6.3 6.4 6.3 6.7 6.8 7.0 7.3 7.2 7.5 7.8 8.1 8.3 7.9 8.5 8.1 8.3 8.5 8.5 8.4 9.1 8.8 8.4 8.9 9.2 9.2 9.3 9.2 9.3 8.9 8.8
4.4 4.1 4.3 4.6 4.4 3.9 3.7 3.5 4.0 5.0 5.6 5.9 6.7 6.7 6.8 6.7 6.5 6.5 6.6 7.0 7.4 7.4 7.0 7.3 7.5 7.7 7.7 8.0 8.5 8.8 9.0 8.9 8.9 7.7 8.2 8.5 8.7 8.8 9.1 9.1 9.2 9.1 9.0 8.9 8.8
5.6 4.9 4.5 4.4 4.0 3.7 3.7 3.8 4.3 5.2 5.6 5.8 6.4 6.8 6.8 6.7 6.8 6.7 6.8 7.1 7.3 7.4 7.2 7.1 6.9 7.7 7.9 7.9 8.1 8.2 8.5 8.9 8.9 8.8 8.5 9.0 8.7 8.9 8.9 9.3 9.3 9.2 9.1 9.1 9.0
6.3 5.7 4.9 4.5 4.1 3.3 3.1 3.3 4.0 5.1 5.4 5.6 5.8 6.5 6.8 6.7 6.9 7.0 6.9 7.1 7.1 7.4 7.3 7.5 7.1 7.4 8.3 8.2 7.8 8.1 8.3 8.5 8.8 8.4 8.6 8.3 8.7 8.8 8.9 9.0 9.2 9.3 9.4 9.3 9.1
6.3 6.0 5.3 4.6 4.3 3.7 3.2 3.2 3.7 4.5 5.0 5.4 5.4 6.1 6.7 6.9 6.8 7.1 7.2 7.2 7.1 7.3 7.3 7.1 7.1 7.1 7.6 8.1 8.2 8.2 8.4 8.3 8.5 8.4 8.5 8.6 8.5 8.7 8.9 9.1 9.0 9.2 9.4 9.3 9.1
6.3 6.1 6.2 5.2 4.6 4.0 3.7 3.6 3.8 4.4 4.5 5.0 4.8 5.5 6.5 6.8 6.8 6.9 7.2 7.3 7.3 7.4 7.6 7.4 6.9 7.1 7.1 7.8 8.0 8.0 8.0 8.0 8.3 8.4 8.6 8.5 8.5 8.8 8.9 8.9 8.9 9.2 9.3 9.2 9.1
6.4 6.3 6.3 5.6 5.3 4.3 4.0 3.9 3.9 4.3 4.8 4.7 4.7 5.3 5.8 6.3 6.6 7.0 7.2 6.9 6.8 7.1 7.2 7.0 6.6 7.1 7.2 7.3 7.7 7.5 7.5 7.5 7.8 8.1 8.2 8.3 8.5 8.9 9.2 9.1 9.2 9.5 9.4 9.2 9.0
Wind_Speed
24 24 24 25 25 25 24 23 22 22 20 19 17 15 14 14 12 2 5 3 5 18 9 7 4 3 2 2 0 1 2 2 2 5 8 12 5 6 5 7 5 3 10 13 15
23 24 23 24 24 24 24 24 23 23 21 19 17 16 14 14 3 7 8 7 8 18 6 4 2 4 1 2 1 2 1 3 4 8 11 9 5 7 4 6 6 14 17 17 16
24 24 25 24 24 24 24 23 22 23 22 19 17 16 14 11 4 2 7 12 15 14 4 3 4 1 2 2 2 1 3 5 9 13 15 9 9 3 11 5 6 17 18 16 15
25 25 26 26 25 25 26 25 24 23 20 18 16 15 16 3 5 1 11 5 10 3 4 3 2 1 1 0 1 1 5 7 10 10 7 7 7 8 3 6 14 15 16 14 15
25 26 26 27 27 27 27 26 24 23 20 16 14 12 3 2 7 1 5 9 7 5 5 4 2 1 2 2 3 3 7 10 13 15 12 10 9 8 12 14 14 14 14 13 13
26 26 26 27 28 28 27 27 25 22 20 14 10 8 1 5 2 0 5 8 6 6 6 5 2 1 0 6 1 8 17 15 10 12 9 11 5 4 7 13 13 12 12 12 13
25 26 26 28 29 30 30 28 27 23 18 9 5 1 2 11 5 3 5 3 3 5 3 3 2 1 2 9 10 15 16 12 8 7 3 7 8 6 12 12 12 11 9 10 11
25 25 27 28 30 31 32 29 28 19 9 5 2 1 6 2 1 5 4 2 2 5 2 2 2 1 1 13 3 5 7 6 6 4 6 7 5 8 11 11 11 10 9 10 11
25 26 27 29 31 33 33 31 17 4 3 5 2 1 7 4 4 6 9 5 5 2 2 3 1 2 4 8 5 2 6 5 6 7 4 4 4 10 13 10 10 10 10 10 10
25 26 28 30 32 33 35 20 3 1 2 2 0 3 5 2 2 3 5 8 4 7 5 4 2 3 3 5 5 9 5 5 6 11 8 7 3 11 15 13 11 11 11 12 12
25 26 28 30 33 35 14 1 3 3 3 7 4 3 3 7 2 5 6 8 4 4 8 5 7 11 13 6 1 8 5 9 11 8 10 12 5 9 14 14 12 11 12 13 13
25 26 28 30 33 30 4 4 5 3 7 10 14 10 9 2 3 3 10 9 5 10 7 5 13 7 8 7 11 7 5 7 3 8 13 8 12 6 14 17 16 14 14 14 13
24 25 27 30 37 3 5 9 5 2 4 7 7 7 7 11 8 7 11 8 9 10 13 12 5 16 11 9 10 6 6 4 5 6 4 6 8 9 10 13 15 16 15 15 16
22 23 24 32 1 6 2 1 9 3 4 5 7 8 8 9 6 9 12 11 4 15 10 7 5 12 11 12 10 10 10 7 8 8 3 9 1 7 13 16 16 18 18 18 19
21 20 20 13 8 4 3 12 5 3 4 3 5 1 7 15 10 9 7 5 10 8 8 10 13 10 8 6 12 3 4 7 7 8 5 8 4 3 6 15 21 22 22 21 20
21 19 17 1 4 8 13 13 3 4 9 3 7 8 10 10 9 7 10 4 4 6 3 4 2 6 10 5 12 14 10 12 7 5 4 6 6 3 7 15 20 20 21 22 21
21 21 14 9 4 2 12 3 5 7 0 6 6 8 17 12 13 13 19 17 12 9 9 3 7 1 3 10 8 7 8 4 4 4 1 1 7 11 11 11 11 20 25 24 22
23 27 9 10 9 9 2 4 12 11 9 1 4 7 14 12 16 12 21 22 11 5 7 11 10 11 9 9 8 13 9 4 4 4 3 3 6 7 4 5 8 16 17 20 20
24 3 4 3 10 5 4 11 11 6 15 5 6 8 10 10 10 12 20 25 23 16 8 11 8 4 13 7 11 6 7 2 6 2 3 4 5 12 6 8 6 12 13 16 20
5 5 4 3 12 6 6 10 6 3 2 14 8 5 14 17 12 18 18 19 17 17 5 6 7 7 10 7 4 6 12 6 1 7 6 4 4 5 4 4 1 7 12 14 14
2 5 5 4 6 4 9 10 7 7 5 5 15 7 5 12 16 20 17 8 23 19 14 8 2 5 9 12 15 6 5 5 4 2 9 6 5 6 8 5 7 2 9 11 13
3 3 3 3 4 2 8 5 6 9 2 3 2 5 8 8 15 15 21 17 22 21 21 8 2 5 12 4 1 9 12 10 7 5 1 4 7 4 8 10 7 5 6 9 11
4 3 1 3 4 5 3 8 7 14 7 3 3 3 2 5 6 14 10 7 14 20 20 11 4 6 7 4 2 6 5 5 7 3 8 10 7 2 5 7 7 6 6 7 8
2 3 2 0 1 3 4 6 17 11 9 3 3 1 3 3 2 7 11 5 11 20 8 19 8 10 11 12 8 7 9 10 12 7 8 9 9 7 9 10 8 6 4 5 6
1 1 3 3 2 4 2 4 7 11 13 8 5 7 7 3 2 3 6 7 8 5 11 12 14 12 11 4 5 7 14 15 14 12 12 11 12 13 14 14 12 8 7 9 9
2 2 1 4 5 4 2 0 5 9 6 20 8 10 5 8 1 4 2 2 3 7 4 4 8 8 18 14 13 18 15 15 13 6 4 4 9 12 9 5 9 11 10 11 11
0 3 3 2 4 3 2 3 2 8 7 11 9 15 6 9 7 7 3 1 1 1 2 3 7 6 14 9 9 11 18 16 11 9 6 7 11 10 10 14 15 15 14 13 13
Wind_Direction
8 5 1 358 355 351 350 349 347 345 342 337 335 333 329 323 315 203 249 206 148 161 156 141 166 137 191 171 275 147 226 126 103 146 132 147 141 69 83 106 67 68 116 125 135
5 2 -0 357 352 348 345 344 342 341 340 336 333 330 326 329 281 245 255 226 181 162 126 159 194 149 195 33 58 282 266 70 41 110 134 134 114 123 130 111 93 100 110 132 145
3 359 356 353 350 345 341 340 338 336 336 334 328 326 322 322 287 269 332 232 170 184 125 138 118 99 355 5 34 80 27 92 51 101 123 115 115 112 136 122 151 143 139 148 156
358 357 353 350 346 342 338 336 335 333 331 331 324 324 319 275 230 357 319 230 169 161 125 122 98 75 215 319 227 303 73 82 119 103 107 100 115 114 31 106 138 143 145 152 164
354 352 350 346 342 337 333 329 329 327 325 326 320 327 312 254 253 332 22 125 149 153 185 180 179 184 345 75 137 57 91 78 110 93 95 106 87 98 98 118 133 138 153 165 175
349 347 344 343 338 332 327 324 323 321 316 316 311 319 219 242 75 31 115 139 166 175 186 200 202 149 77 46 344 108 105 106 101 101 129 120 106 162 132 133 141 161 168 174 185
345 342 340 337 335 329 324 323 319 313 304 295 290 279 192 243 148 330 179 191 186 190 172 201 159 252 135 102 125 115 99 99 98 121 116 126 66 78 147 154 156 173 182 186 195
340 339 336 333 330 326 323 320 314 307 287 244 191 197 249 222 254 264 202 211 194 209 256 89 75 200 57 124 123 105 107 143 166 154 165 310 123 145 165 170 170 181 196 208 213
335 335 333 331 327 325 323 317 313 337 142 165 176 211 259 321 222 224 185 188 150 157 193 85 37 66 137 141 123 37 170 150 166 203 177 273 126 166 174 190 192 193 199 210 219
333 332 332 330 326 326 322 312 272 277 194 207 258 271 246 155 230 166 192 156 154 139 128 155 111 157 138 185 193 180 155 184 192 193 197 200 192 167 184 196 209 203 206 210 216
332 330 330 329 326 327 329 333 256 210 217 218 173 258 278 320 246 197 170 153 123 155 174 167 187 186 175 191 174 163 177 198 219 191 192 211 223 190 192 204 214 216 216 219 220
329 329 329 328 324 324 282 83 71 310 302 243 247 261 261 314 295 206 178 157 163 177 141 160 216 170 170 158 148 160 185 226 227 179 206 202 229 212 198 211 212 218 223 223 223
326 328 330 329 322 0 329 123 346 192 248 278 209 210 214 172 210 227 194 143 168 161 187 200 180 152 147 162 158 196 199 208 231 113 165 175 233 217 210 215 220 226 226 230 226
324 327 332 336 102 344 250 27 325 219 281 242 208 231 162 154 224 186 184 165 162 189 164 209 148 158 171 186 188 227 206 195 188 180 230 201 259 208 205 210 217 223 226 226 224
320 324 329 342 307 293 5 327 315 202 274 150 172 70 159 178 137 200 170 167 169 162 175 183 178 178 186 205 190 211 138 193 207 191 182 192 253 124 198 224 218 218 221 225 226
311 316 325 325 287 255 317 315 214 203 236 225 156 165 161 194 166 127 164 113 126 136 86 137 166 208 216 160 183 143 104 87 106 173 220 177 240 219 194 217 219 219 215 223 221
309 305 300 285 253 151 335 281 186 218 113 190 183 173 182 181 163 167 175 180 176 168 188 162 195 182 198 149 165 171 168 170 167 190 148 324 205 261 255 241 222 214 213 212 216
311 308 278 239 246 264 278 201 218 193 207 160 157 163 186 163 190 170 178 187 197 139 165 185 199 193 195 196 172 188 203 210 173 185 158 128 219 243 270 296 242 227 219 212 215
317 300 274 262 215 200 203 209 210 190 210 182 143 173 192 196 194 169 188 196 192 188 183 179 217 163 188 176 176 168 191 194 106 65 204 173 254 277 262 260 283 215 201 204 208
314 306 267 332 162 172 202 230 232 243 286 215 213 204 190 194 192 189 182 200 194 193 217 180 195 189 172 133 128 210 145 167 204 160 210 186 271 253 282 326 85 167 195 204 205
318 307 4 173 172 201 214 226 229 264 265 212 211 204 202 191 207 197 185 171 191 184 191 156 248 147 160 204 171 154 173 73 116 301 209 220 230 219 247 292 311 201 198 202 202
327 280 52 193 202 226 216 204 229 251 248 278 259 200 196 179 200 203 198 204 195 172 191 177 178 188 191 109 278 204 185 179 199 191 200 245 220 199 251 274 265 260 214 204 205
312 279 337 258 226 220 245 238 251 238 227 225 252 224 176 170 189 207 201 209 186 181 186 172 200 183 161 156 129 199 164 138 108 132 190 208 209 222 263 252 237 239 217 207 207
319 309 314 229 28 338 334 235 223 236 261 230 288 271 187 157 25 174 174 158 178 199 161 168 184 214 204 194 155 168 177 177 193 200 189 221 223 225 222 228 214 193 188 194 198
1 336 332 328 142 344 286 310 237 228 232 218 222 231 209 155 136 126 187 137 80 155 169 183 216 207 219 193 177 174 185 181 191 199 208 215 209 222 213 212 207 181 169 169 166
303 312 340 290 300 298 137 213 270 280 262 220 241 215 216 219 139 165 94 81 68 67 138 175 209 191 224 217 236 245 232 203 208 180 205 187 224 236 244 190 187 189 188 184 173
338 270 276 318 312 289 115 359 327 343 248 245 258 242 232 245 270 310 298 261 293 108 81 144 176 172 228 219 217 245 230 212 192 189 192 188 231 169 197 208 209 195 192 184 180